| time (UTC) | temp F | wind direction | speed knots | gust knots | rain 1hr in | rain 24hr in | rain mn in | humidity % | barometer mb |
| 20260505011535 | 65 | 181 | 0.9 | 2.6 | 0.00 | 0.00 | 0.00 | 48 | 1010.9 |
| 20260505010035 | 66 | 217 | 0.9 | 3.5 | 0.00 | 0.00 | 0.00 | 48 | 1010.8 |
| 20260505004534 | 66 | 214 | 0.0 | 1.7 | 0.00 | 0.00 | 0.00 | 47 | 1010.7 |
| 20260505003034 | 67 | 224 | 0.0 | 1.7 | 0.00 | 0.00 | 0.00 | 46 | 1010.5 |
| 20260505001533 | 67 | 221 | 0.0 | 1.7 | 0.00 | 0.00 | 0.00 | 44 | 1010.4 |
| 20260505000045 | 68 | 209 | 0.0 | 1.7 | 0.00 | 0.00 | 0.00 | 43 | 1010.3 |
| 20260504234535 | 68 | 222 | 0.0 | 2.6 | 0.00 | 0.00 | 0.00 | 43 | 1010.3 |
| 20260504233031 | 69 | 221 | 0.0 | 1.7 | 0.00 | 0.00 | 0.00 | 42 | 1010.2 |
| 20260504231531 | 69 | 232 | 0.0 | 2.6 | 0.00 | 0.00 | 0.00 | 41 | 1010.2 |
| 20260504230030 | 70 | 183 | 0.0 | 4.3 | 0.00 | 0.00 | 0.00 | 41 | 1010.2 |
| 20260504224529 | 70 | 223 | 0.0 | 3.5 | 0.00 | 0.00 | 0.00 | 40 | 1010.2 |
| 20260504223030 | 70 | 236 | 1.7 | 6.1 | 0.00 | 0.00 | 0.00 | 40 | 1010.3 |
| 20260504221529 | 70 | 250 | 0.9 | 3.5 | 0.00 | 0.00 | 0.00 | 40 | 1010.3 |
| 20260504220038 | 70 | 223 | 0.0 | 4.3 | 0.00 | 0.00 | 0.00 | 40 | 1010.3 |
| 20260504214527 | 70 | 234 | 0.9 | 4.3 | 0.00 | 0.00 | 0.00 | 40 | 1010.3 |
| 20260504213027 | 70 | 273 | 0.0 | 8.7 | 0.00 | 0.00 | 0.00 | 41 | 1010.5 |
| 20260504211533 | 70 | 319 | 1.7 | 7.0 | 0.00 | 0.00 | 0.00 | 41 | 1010.6 |
| 20260504210025 | 70 | 147 | 0.9 | 4.3 | 0.00 | 0.00 | 0.00 | 41 | 1010.4 |
| 20260504204527 | 70 | 230 | 1.7 | 4.3 | 0.00 | 0.00 | 0.00 | 41 | 1010.4 |
| 20260504203027 | 70 | 229 | 0.0 | 4.3 | 0.00 | 0.00 | 0.00 | 42 | 1010.6 |
| 20260504201522 | 70 | 267 | 0.9 | 4.3 | 0.00 | 0.00 | 0.00 | 40 | 1010.7 |
| 20260504200021 | 70 | 301 | 0.9 | 3.5 | 0.00 | 0.00 | 0.00 | 40 | 1010.8 |
| 20260504194518 | 70 | 67 | 0.0 | 7.0 | 0.00 | 0.00 | 0.00 | 40 | 1010.9 |
| 20260504193023 | 70 | 231 | 1.7 | 7.0 | 0.00 | 0.00 | 0.00 | 40 | 1011.0 |
| 20260504191522 | 70 | 272 | 0.0 | 4.3 | 0.00 | 0.00 | 0.00 | 40 | 1011.1 |
| 20260504190014 | 69 | 194 | 0.9 | 6.1 | 0.00 | 0.00 | 0.00 | 40 | 1011.4 |
| 20260504184516 | 69 | 342 | 1.7 | 7.0 | 0.00 | 0.00 | 0.00 | 40 | 1011.7 |
| 20260504183008 | 69 | 336 | 2.6 | 7.8 | 0.00 | 0.00 | 0.00 | 40 | 1011.8 |
| 20260504181503 | 69 | 167 | 0.9 | 7.0 | 0.00 | 0.00 | 0.00 | 41 | 1012.2 |
| 20260504180059 | 69 | 228 | 1.7 | 6.1 | 0.00 | 0.00 | 0.00 | 41 | 1012.2 |
| 20260504174556 | 68 | 224 | 0.9 | 7.0 | 0.00 | 0.00 | 0.00 | 41 | 1012.5 |
| 20260504173056 | 69 | 292 | 0.9 | 6.1 | 0.00 | 0.00 | 0.00 | 41 | 1012.7 |
| 20260504171600 | 69 | 281 | 0.9 | 7.0 | 0.00 | 0.00 | 0.00 | 41 | 1012.8 |
| 20260504081514 | 46 | 130 | 0.0 | 0.0 | 0.00 | 0.00 | 0.00 | 63 | 1015.5 |
| 20260504044557 | 48 | 307 | 0.0 | 0.0 | 0.00 | 0.00 | 0.00 | 56 | 1015.2 |
| 20260504043101 | 48 | 307 | 0.0 | 0.0 | 0.00 | 0.00 | 0.00 | 55 | 1015.1 |
| 20260504041555 | 48 | 307 | 0.0 | 0.0 | 0.00 | 0.00 | 0.00 | 55 | 1015.0 |
| 20260504040052 | 48 | 307 | 0.0 | 0.0 | 0.00 | 0.00 | 0.00 | 54 | 1014.8 |
| 20260504034550 | 49 | 307 | 0.0 | 0.0 | 0.00 | 0.00 | 0.00 | 53 | 1014.8 |
| 20260504033054 | 49 | 307 | 0.0 | 0.0 | 0.00 | 0.00 | 0.00 | 53 | 1014.7 |
| 20260504031559 | 50 | 307 | 0.0 | 0.0 | 0.00 | 0.00 | 0.00 | 52 | 1014.7 |
| 20260504030051 | 50 | 307 | 0.0 | 0.0 | 0.00 | 0.00 | 0.00 | 51 | 1014.7 |
| 20260504024557 | 50 | 311 | 0.0 | 0.9 | 0.00 | 0.00 | 0.00 | 51 | 1014.7 |
| 20260504023048 | 50 | 313 | 0.0 | 0.0 | 0.00 | 0.00 | 0.00 | 50 | 1014.8 |
| 20260504021552 | 51 | 313 | 0.0 | 0.0 | 0.00 | 0.00 | 0.00 | 49 | 1014.7 |
| 20260504020050 | 52 | 313 | 0.0 | 0.0 | 0.00 | 0.00 | 0.00 | 48 | 1014.6 |
| 20260504014547 | 52 | 313 | 0.0 | 0.0 | 0.00 | 0.00 | 0.00 | 47 | 1014.6 |
| 20260504013056 | 53 | 313 | 0.0 | 0.0 | 0.00 | 0.00 | 0.00 | 46 | 1014.4 |